ジョンソン彗星

48P/Johnson (2018)

English version
Home page
Updated on April 4, 2021

---------------------------------------------------------------------

・ プロフィール

・ 写真集

・ 軌道要素

Epoch 2018 Aug. 30.0 TT = JDT 2458360.5
T 2018 Aug. 12.19749 TT                                 Rudenko
q   2.0045204            (2000.0)            P               Q
n   0.15064125     Peri.  216.56116     +0.82311070     +0.53205013
a   3.4981636      Node   110.13348     -0.45794255     +0.82861279
e   0.4269792      Incl.   12.20697     -0.33582347     +0.17413644
P   6.54
From 2288 observations 1963 July 15-2020 Dec. 12, mean residual 0".8.
     Nongravitational parameters A1 = +0.56, A2 = -0.0174.

・ 星図

・ 光度変化

        m1 = 14.5 + 5 logΔ +  5.0 log r          [    ,-200]  (              〜2018年 1月24日)
        m1 =  1.5 + 5 logΔ + 35   log r(t - 40)  [-200, 295]  (2018年 1月24日〜2019年 6月 3日)
        m1 = 14.5 + 5 logΔ +  5.0 log r          [ 295,    ]  (2019年 6月 3日〜              )

---------------------------------------------------------------------

軌道要素はM.P.E.C. 2021-F20に掲載されたものです。
星図はステラナビゲータ Ver.8 (アストロアーツ) で作成したものです。
光度グラフはComet for Windowsで作成したものです。

---------------------------------------------------------------------

Copyright(C) Seiichi Yoshida (comet@aerith.net). All rights reserved.